Dewpoint
27 16 14 16 26 27 26 24 23 21 18 18 18 15 15 16 17 24 25 25 33 42 46 50 54 55 58 58 58 57 58 58 58 57 57 57 56 58 58 58 57 58 57 57
29 19 21 22 25 25 25 23 21 22 23 22 21 24 17 17 18 19 25 26 30 43 47 49 54 55 57 57 57 57 57 57 58 57 57 57 57 57 58 57 57 56 56 56
28 30 32 31 21 24 23 22 21 21 22 24 20 18 15 17 18 19 24 27 30 43 47 49 53 54 55 57 57 57 56 57 58 57 57 57 57 56 56 56 55 55 55 56
35 36 34 35 28 23 24 26 24 22 23 27 29 19 18 17 18 19 18 26 30 43 47 49 51 53 53 54 56 56 56 57 57 57 56 56 55 54 54 55 55 54 57 56
28 34 33 35 31 26 25 30 30 31 32 32 29 21 19 19 18 19 18 24 30 43 47 48 50 53 53 53 56 56 57 57 56 57 56 56 55 55 54 53 53 55 55 56
31 31 34 35 33 30 34 33 30 34 33 29 30 25 18 18 19 20 19 23 26 43 46 48 50 52 53 55 55 56 56 56 56 57 56 55 54 54 53 52 52 53 54 56
27 28 31 35 32 33 32 32 29 28 28 27 26 23 20 21 21 21 21 23 28 44 45 47 49 51 52 53 54 56 55 55 56 56 56 55 54 53 52 50 49 51 53 55
24 24 31 33 33 31 30 35 30 24 25 22 23 19 19 22 22 20 19 25 33 43 45 47 48 50 53 53 53 54 55 55 55 56 55 55 54 54 52 50 48 49 52 54
25 26 32 32 34 35 33 33 34 32 29 30 30 20 21 22 22 22 22 24 32 42 44 47 47 48 52 53 53 54 54 53 56 55 56 55 55 54 54 52 49 49 52 53
28 26 29 31 38 38 35 35 30 32 25 25 26 28 19 20 20 20 20 23 28 38 43 46 47 47 52 53 54 55 55 54 55 56 56 55 55 55 54 54 51 50 50 52
30 32 29 34 36 35 35 34 36 34 33 26 28 30 36 30 27 24 28 30 33 37 43 46 46 47 49 53 54 54 55 55 55 55 56 56 55 55 55 54 54 53 51 51
36 35 28 27 31 35 33 37 36 31 29 29 26 29 38 32 28 26 29 28 30 36 41 45 46 47 47 50 53 54 54 55 55 55 55 55 55 56 55 54 53 54 54 53
31 32 27 23 25 26 32 36 36 36 36 32 30 29 39 31 28 27 28 30 31 36 40 44 46 47 48 48 50 52 53 53 53 55 54 54 54 54 54 55 54 53 53 55
34 30 27 25 29 33 32 37 36 35 32 31 32 32 37 37 32 30 32 33 35 36 35 41 45 47 47 48 50 51 52 53 52 55 54 54 54 54 54 54 55 55 54 53
34 29 30 31 30 33 32 33 36 34 35 34 35 32 38 37 39 37 37 38 38 39 40 42 42 41 44 49 49 49 51 52 52 52 54 54 55 55 55 54 55 55 55 54
34 28 30 27 28 31 31 34 36 38 35 36 37 37 41 40 42 37 37 37 38 39 42 44 46 48 48 48 50 51 51 51 52 51 51 52 54 55 55 55 55 55 55 54
32 28 26 25 30 31 29 34 37 37 38 37 36 38 40 42 38 37 37 38 38 41 43 46 47 47 47 47 48 49 50 52 53 51 51 50 51 54 55 55 55 55 55 55
27 29 28 25 29 24 31 35 37 38 39 39 39 39 39 39 35 36 37 36 39 43 45 46 46 45 44 45 48 49 48 48 49 52 53 53 52 51 52 54 55 55 55 55
29 28 26 21 25 27 32 38 37 37 36 39 40 41 40 41 37 36 38 39 42 43 46 45 42 41 40 41 45 45 45 46 46 47 47 47 48 49 53 52 53 54 54 54
25 28 25 26 23 22 28 38 37 36 32 39 39 38 38 36 34 35 38 37 37 39 43 41 38 37 36 36 41 41 41 41 42 42 42 41 41 43 45 49 50 54 54 54
23 26 26 25 24 26 35 38 36 30 32 42 38 36 34 33 35 38 37 35 35 35 36 37 35 34 33 34 36 36 36 37 38 38 38 37 36 37 38 42 42 43 48 52
23 26 25 25 23 18 38 39 35 39 40 37 36 37 35 34 35 35 34 33 32 32 33 34 33 32 31 32 33 33 33 36 36 35 33 32 32 33 33 34 36 37 37 37
25 26 25 24 25 37 39 40 37 36 35 35 34 34 34 34 34 33 31 31 30 29 30 31 31 30 29 29 30 30 31 34 34 32 31 30 28 29 30 30 30 31 33 33
31 28 27 26 35 35 35 35 35 35 34 34 33 32 33 32 32 30 29 28 27 27 27 28 28 27 26 27 27 29 30 33 32 31 29 28 27 27 27 28 28 28 29 28
33 34 35 31 33 35 36 34 34 33 33 32 32 30 30 30 29 28 27 26 25 25 25 25 25 24 24 25 26 28 29 30 30 29 28 27 26 25 26 27 27 27 28 27
33 30 32 29 34 33 33 33 33 32 31 29 29 27 26 27 26 25 24 23 22 22 22 23 23 24 25 25 26 28 28 28 28 27 26 26 26 25 24 23 24 28 28 28
Wind_Speed
11 13 18 15 18 19 18 21 27 27 25 22 30 31 31 19 17 21 23 21 18 27 21 26 24 24 22 21 17 17 17 14 12 11 13 15 15 15 19 19 20 20 18 18
13 17 13 17 22 19 18 24 33 32 27 22 22 36 23 20 19 24 28 27 22 22 25 25 26 22 20 21 18 17 17 17 14 11 10 8 13 9 17 19 22 20 19 17
18 11 8 16 25 20 20 23 27 26 28 33 26 26 14 12 15 21 20 29 23 31 31 26 26 26 23 22 20 17 17 16 16 15 12 12 12 12 10 17 19 19 21 16
4 6 14 21 23 20 18 15 31 23 19 19 27 25 17 22 26 26 25 26 24 28 28 27 25 25 25 21 19 18 18 17 15 18 16 19 15 18 15 15 18 20 18 13
9 7 8 18 23 21 15 21 30 10 15 21 33 22 18 19 20 21 28 25 27 33 33 30 29 28 25 23 21 20 20 20 18 16 19 19 15 17 18 17 19 15 14 16
18 14 5 3 14 10 9 20 10 9 7 16 29 23 16 22 17 18 25 29 27 30 30 27 25 25 25 24 21 21 21 20 19 18 21 22 22 18 20 21 20 16 15 13
11 20 19 9 9 10 11 12 3 5 9 14 13 21 23 15 27 21 9 24 25 30 29 28 29 27 26 27 24 22 23 22 21 20 21 22 22 23 24 24 23 20 17 11
4 7 6 13 15 8 17 9 7 8 5 6 19 11 22 23 30 16 10 17 26 30 30 31 30 28 29 28 26 23 24 24 23 23 22 22 22 20 20 23 22 20 19 17
3 4 4 6 12 19 6 14 7 11 8 5 6 10 21 23 29 14 14 13 24 27 27 30 27 27 29 28 26 26 23 23 22 23 21 20 18 23 22 23 21 19 16 14
1 8 6 1 13 13 10 3 5 6 3 5 9 12 14 11 20 17 15 9 12 23 26 27 28 27 26 27 25 24 24 23 21 21 21 22 20 20 17 22 26 25 22 18
5 4 2 3 8 8 10 7 7 3 6 4 5 4 6 4 7 17 17 14 12 19 24 27 26 26 27 27 26 26 24 24 23 23 21 21 22 22 22 21 24 26 25 24
1 4 9 14 14 18 15 15 14 8 5 10 8 11 22 3 11 19 18 15 9 10 22 21 26 25 25 26 26 26 25 25 24 23 23 23 22 22 23 22 23 23 24 26
4 4 7 8 8 12 6 16 20 12 6 11 4 5 16 7 7 19 24 18 16 8 12 20 22 23 23 24 25 25 25 24 21 26 24 23 25 28 26 24 24 25 27 23
1 5 9 10 15 4 6 9 22 24 7 9 17 8 5 20 22 25 21 22 25 24 29 12 10 15 26 24 25 25 25 25 24 26 26 27 27 26 28 27 25 26 24 28
3 6 8 15 18 14 15 18 19 31 25 8 7 11 6 9 25 16 18 22 25 24 25 25 22 22 20 2 15 23 26 26 27 25 27 28 26 25 25 28 26 24 24 26
6 4 7 13 11 8 20 22 19 21 27 22 25 25 2 6 5 11 18 22 23 21 22 23 25 25 24 22 19 16 7 20 26 26 26 22 25 27 27 26 27 28 28 28
3 3 5 5 9 16 13 10 14 12 12 18 15 9 9 9 10 13 17 19 20 19 19 22 22 23 22 22 17 18 17 18 8 21 23 23 23 26 27 28 29 29 29 27
8 3 2 8 11 5 6 3 4 9 6 6 6 1 11 20 17 19 17 16 16 18 19 21 22 23 23 22 25 20 21 21 21 22 16 10 10 20 22 25 28 28 27 28
19 8 3 4 10 13 5 8 3 9 10 16 17 6 12 14 17 24 27 24 23 21 22 22 22 23 25 28 24 20 21 20 21 21 19 19 19 21 15 20 25 28 25 26
16 15 10 5 6 4 4 7 4 3 6 10 17 10 9 18 20 13 21 27 29 30 25 23 22 23 25 27 23 22 22 21 21 21 18 17 18 20 15 14 18 15 19 24
21 17 18 10 4 10 5 9 3 5 5 10 16 14 17 24 15 13 21 25 24 25 26 21 24 23 22 23 21 22 23 25 21 19 14 13 17 16 18 15 16 19 15 5
17 14 11 8 6 9 15 9 3 14 14 18 18 17 18 16 16 20 22 25 25 25 25 23 20 21 21 22 21 21 23 22 20 19 19 19 16 14 15 17 19 22 20 17
9 11 10 12 6 17 20 22 19 19 20 19 20 16 16 16 18 19 20 21 22 23 21 19 18 18 20 21 21 21 20 19 17 17 18 18 18 16 16 19 19 20 18 17
6 16 4 8 16 21 23 23 24 21 21 20 20 18 17 17 17 19 18 19 19 19 18 17 17 18 19 19 19 17 18 16 15 16 18 18 20 23 23 20 19 16 16 17
4 6 6 7 3 23 23 22 20 19 20 20 21 20 19 18 17 17 16 16 16 15 15 17 17 17 18 18 18 18 18 15 14 14 15 16 16 19 24 29 23 21 22 14
11 11 3 3 15 19 12 18 19 17 17 18 16 17 19 17 15 15 15 15 15 15 15 17 18 18 18 18 18 18 17 16 14 14 14 14 13 14 16 20 26 35 33 33
Wind_Direction
225 230 237 231 240 253 275 280 273 269 268 283 282 253 243 214 230 221 216 209 195 179 174 151 138 140 130 139 150 157 148 153 137 131 134 138 147 148 148 158 164 171 173 171
243 241 253 269 240 251 269 264 264 280 285 284 281 269 227 222 229 233 218 209 200 171 149 144 141 144 145 152 162 161 153 161 154 157 145 140 141 147 158 170 170 176 179 184
246 262 260 274 257 249 255 270 261 268 294 301 285 283 240 260 263 264 215 200 194 166 157 154 151 152 148 154 167 165 161 170 161 155 146 135 146 141 156 167 170 183 185 199
302 275 270 263 255 240 259 296 292 278 285 282 307 288 274 249 250 249 249 201 191 166 159 157 154 158 160 161 169 168 165 172 167 160 159 160 165 164 177 165 173 182 195 197
251 249 306 244 248 233 249 289 304 328 320 312 285 281 266 266 282 254 234 194 173 164 162 164 166 162 162 160 168 174 168 171 177 166 167 164 160 176 174 175 179 190 195 201
244 264 202 241 266 229 278 289 283 338 305 265 269 269 266 260 261 286 226 189 178 161 163 161 160 155 158 161 165 168 171 175 179 172 168 173 173 172 174 184 186 192 198 194
274 252 239 191 259 241 243 278 232 238 228 246 263 257 248 258 254 254 190 175 168 158 153 156 157 162 159 166 169 172 173 177 181 175 177 178 179 178 180 184 189 188 194 192
288 320 176 191 204 184 219 198 184 193 229 237 222 244 237 231 249 233 140 154 154 157 160 164 164 162 162 168 173 180 180 180 181 182 184 187 183 183 185 189 192 194 197 199
291 242 40 202 204 205 202 211 272 304 318 276 261 213 262 277 234 162 137 125 164 160 161 165 164 162 163 167 175 180 187 187 181 185 184 188 180 182 189 191 196 203 203 203
241 289 311 219 196 234 253 15 205 213 255 247 283 267 209 202 143 152 161 157 167 170 163 162 165 165 166 167 171 178 181 189 187 186 189 192 189 190 194 190 196 200 203 201
14 217 295 117 194 199 206 215 203 232 254 272 288 276 289 317 258 127 116 102 98 155 161 163 169 167 163 166 170 177 181 185 188 190 190 193 197 200 206 197 196 201 205 204
132 274 253 248 210 220 205 232 212 200 196 247 235 289 297 346 47 116 123 118 106 124 170 164 163 162 163 167 170 177 181 188 191 191 191 198 199 202 204 202 198 199 205 206
187 245 291 301 228 205 229 237 229 227 275 246 251 249 277 249 189 65 69 74 55 66 137 151 152 162 166 173 175 178 183 187 183 189 192 198 204 210 212 210 209 207 210 205
284 234 234 268 304 246 233 287 216 212 222 249 236 186 324 330 33 26 48 50 56 46 41 75 89 173 173 176 176 182 187 189 190 184 193 198 203 206 213 217 218 212 209 212
210 263 269 281 295 297 305 283 282 217 215 240 277 241 96 295 28 32 61 61 54 46 46 49 48 44 37 231 188 184 188 188 192 195 191 201 201 201 205 211 216 216 214 216
208 269 307 298 267 343 310 284 260 236 215 234 259 295 330 5 357 39 60 65 59 47 40 40 46 46 39 35 27 24 305 205 192 201 207 197 193 197 202 205 210 215 220 221
233 257 344 287 343 326 281 261 248 188 187 221 219 220 154 139 116 65 56 63 69 66 45 46 45 44 31 21 14 15 6 24 260 220 209 207 199 198 199 201 206 213 216 216
217 161 279 290 316 242 330 107 159 164 98 119 190 360 121 90 57 47 39 53 69 74 66 54 42 33 28 19 19 24 33 29 30 34 23 339 294 229 207 201 209 212 212 215
223 185 251 279 310 279 291 29 18 185 50 33 43 48 85 131 45 30 21 31 61 55 67 60 51 37 23 16 20 24 26 27 27 26 20 11 359 351 245 217 221 219 214 218
207 186 197 194 274 289 246 167 198 164 82 64 71 56 76 106 72 23 48 52 52 47 56 51 47 40 29 13 13 20 22 25 23 14 11 9 13 7 358 4 354 267 221 224
193 194 208 225 228 274 5 143 123 84 126 94 79 65 65 72 70 56 55 57 54 53 47 49 48 42 28 16 13 21 16 16 4 4 14 28 24 24 8 2 31 10 351 224
179 181 192 219 225 261 127 88 310 118 96 92 72 56 60 64 57 62 53 51 45 43 40 39 46 41 28 22 19 19 14 1 7 9 13 13 27 38 29 31 22 40 30 39
185 187 165 183 211 75 83 108 91 86 87 77 75 57 72 61 65 61 53 52 48 41 37 33 39 38 29 21 19 14 0 1 13 22 22 18 17 25 40 45 41 40 44 51
271 209 215 141 94 89 83 73 73 74 82 75 69 60 63 60 66 61 52 47 44 38 33 31 33 30 23 17 16 11 0 2 25 29 28 28 33 33 32 39 36 45 64 67
300 332 70 89 40 65 43 61 65 58 63 69 68 58 45 58 66 69 60 51 45 41 38 39 38 34 27 18 17 10 9 12 36 40 40 38 42 49 56 54 47 51 49 66
5 9 90 128 98 95 66 55 57 56 69 62 65 63 52 57 65 69 63 55 49 44 41 45 44 39 33 31 25 19 22 27 40 45 43 44 48 55 65 69 68 55 58 60